User: anonymous   Login
Location: Caltech
(34.1382°N, 118.1253°W)
Time: 20:54:33
(UTC-08:00)
Language:

Meteor 1-11 Rocket - Orbit

View from above orbital plane
View from above orbital plane
View from above satellite
View from above satellite

Ground track
Ground track

The orbit data is extracted from the following two-line orbital elements,

1  5918U 72022B   16343.90107810 +.00000015 +00000-0 +10468-5 0  9999
2  5918 081.2353 149.9512 0059240 140.6744 219.8750 14.05814427290991
Epoch (UTC): 08 December 2016 21:37:33
Eccentricity: 0.0059240
inclination: 81.2353°
perigee height: 831 km
apogee height: 916 km
right ascension of ascending node: 149.9512°
argument of perigee: 140.6744°
revolutions per day: 14.05814427
mean anomaly at epoch: 219.8750°
orbit number at epoch: 29099

The dashed part of the orbit path shows where the satellite is in the earth's shadow,  

DLR